Time,TemperatureF,DewpointF,PressureIn,WindDirection,WindDirectionDegrees,WindSpeedMPH,WindSpeedGustMPH,Humidity,HourlyPrecipIn,Conditions,Clouds,dailyrainin,SoftwareType,DateUTC
2013-09-05 00:01:00,58.3,55.4,29.88,SSW,203,3.6,7.6,90,0.00,,,0.00,WUHU216HW,2013-09-05 04:01:00,
2013-09-05 00:06:00,58.3,55.4,29.88,South,180,6.5,7.6,90,0.00,,,0.00,WUHU216HW,2013-09-05 04:06:00,
2013-09-05 00:11:00,58.1,54.9,29.88,SSW,203,5.4,7.2,89,0.00,,,0.00,WUHU216HW,2013-09-05 04:11:00,
2013-09-05 00:16:00,58.1,54.6,29.88,SSW,203,4.7,7.2,88,0.00,,,0.00,WUHU216HW,2013-09-05 04:16:00,
2013-09-05 00:21:00,58.1,54.9,29.88,South,180,5.4,6.5,89,0.00,,,0.00,WUHU216HW,2013-09-05 04:21:00,
2013-09-05 00:26:00,58.1,54.6,29.88,South,180,5.8,6.9,88,0.00,,,0.00,WUHU216HW,2013-09-05 04:26:00,
2013-09-05 00:31:00,58.0,54.7,29.88,South,180,4.9,6.9,89,0.00,,,0.00,WUHU216HW,2013-09-05 04:31:00,
2013-09-05 00:36:00,58.0,54.7,29.88,SSW,203,2.5,5.8,89,0.00,,,0.00,WUHU216HW,2013-09-05 04:36:00,
2013-09-05 00:41:00,58.0,54.7,29.88,WNW,293,0.4,4.9,89,0.00,,,0.00,WUHU216HW,2013-09-05 04:41:00,
2013-09-05 00:46:00,58.0,54.7,29.87,NNE,23,1.1,2.9,89,0.00,,,0.00,WUHU216HW,2013-09-05 04:46:00,
2013-09-05 00:51:00,58.0,54.7,29.87,North,0,0.0,1.8,89,0.00,,,0.00,WUHU216HW,2013-09-05 04:51:00,
2013-09-05 00:56:00,57.8,54.5,29.87,North,0,0.0,1.1,89,0.00,,,0.00,WUHU216HW,2013-09-05 04:56:00,
2013-09-05 01:01:00,57.8,54.5,29.87,North,0,0.0,0.4,89,0.00,,,0.00,WUHU216HW,2013-09-05 05:01:00,
2013-09-05 01:06:00,57.6,54.4,29.87,NW,315,0.0,0.4,89,0.00,,,0.00,WUHU216HW,2013-09-05 05:06:00,
2013-09-05 01:11:00,57.6,54.4,29.88,NNW,338,1.8,2.0,89,0.00,,,0.00,WUHU216HW,2013-09-05 05:11:00,
2013-09-05 01:16:00,57.6,54.4,29.87,North,0,2.0,2.7,89,0.00,,,0.00,WUHU216HW,2013-09-05 05:16:00,
2013-09-05 01:21:00,57.6,54.4,29.87,North,0,0.4,2.7,89,0.00,,,0.00,WUHU216HW,2013-09-05 05:21:00,
2013-09-05 01:26:00,57.4,54.2,29.87,East,90,1.1,2.0,89,0.00,,,0.00,WUHU216HW,2013-09-05 05:26:00,
2013-09-05 01:31:00,57.4,54.2,29.87,WNW,293,0.0,1.8,89,0.00,,,0.00,WUHU216HW,2013-09-05 05:31:00,
2013-09-05 01:36:00,57.4,54.2,29.87,North,0,0.0,1.8,89,0.00,,,0.00,WUHU216HW,2013-09-05 05:36:00,
2013-09-05 01:41:00,57.4,54.2,29.87,West,270,0.4,1.1,89,0.00,,,0.00,WUHU216HW,2013-09-05 05:41:00,
2013-09-05 01:46:00,57.4,54.2,29.87,NW,315,0.7,1.1,89,0.00,,,0.00,WUHU216HW,2013-09-05 05:46:00,
2013-09-05 01:51:00,57.4,54.2,29.87,North,0,0.0,1.1,89,0.00,,,0.00,WUHU216HW,2013-09-05 05:51:00,
2013-09-05 01:56:00,57.4,54.2,29.87,North,0,0.0,1.1,89,0.00,,,0.00,WUHU216HW,2013-09-05 05:56:00,
2013-09-05 02:01:00,57.2,54.0,29.87,North,0,0.0,0.9,89,0.00,,,0.00,WUHU216HW,2013-09-05 06:01:00,
2013-09-05 02:06:00,57.2,54.0,29.87,NNE,23,0.0,1.1,89,0.00,,,0.00,WUHU216HW,2013-09-05 06:06:00,
2013-09-05 02:11:00,57.2,54.4,29.87,NNW,338,0.9,1.1,90,0.00,,,0.00,WUHU216HW,2013-09-05 06:11:00,
2013-09-05 02:16:00,57.2,54.4,29.87,NNW,338,0.2,1.1,90,0.00,,,0.00,WUHU216HW,2013-09-05 06:16:00,
2013-09-05 02:21:00,57.2,54.4,29.87,North,0,0.0,0.9,90,0.00,,,0.00,WUHU216HW,2013-09-05 06:21:00,
2013-09-05 02:26:00,57.1,54.2,29.87,NNW,338,1.1,1.1,90,0.00,,,0.00,WUHU216HW,2013-09-05 06:26:00,
2013-09-05 02:31:00,57.1,54.2,29.87,NNW,338,0.7,1.3,90,0.00,,,0.00,WUHU216HW,2013-09-05 06:31:00,
2013-09-05 02:36:00,56.9,54.0,29.87,West,270,0.7,1.8,90,0.00,,,0.00,WUHU216HW,2013-09-05 06:36:00,
2013-09-05 02:41:00,56.9,54.0,29.87,West,270,1.1,1.8,90,0.00,,,0.00,WUHU216HW,2013-09-05 06:41:00,
2013-09-05 02:46:00,56.9,54.0,29.87,WSW,248,0.0,1.1,90,0.00,,,0.00,WUHU216HW,2013-09-05 06:46:00,
2013-09-05 02:51:00,56.7,53.5,29.87,West,270,2.5,3.1,89,0.00,,,0.00,WUHU216HW,2013-09-05 06:51:00,
2013-09-05 02:56:00,56.5,53.3,29.87,NW,315,0.9,3.1,89,0.00,,,0.00,WUHU216HW,2013-09-05 06:56:00,
2013-09-05 03:01:00,56.3,52.8,29.88,NNW,338,1.3,4.0,88,0.00,,,0.00,WUHU216HW,2013-09-05 07:01:00,
2013-09-05 03:06:00,55.8,51.9,29.87,NNE,23,1.8,4.0,87,0.00,,,0.00,WUHU216HW,2013-09-05 07:06:00,
2013-09-05 03:11:00,55.4,51.3,29.88,NNE,23,0.9,4.3,86,0.00,,,0.00,WUHU216HW,2013-09-05 07:11:00,
2013-09-05 03:16:00,55.3,51.1,29.88,ENE,68,0.9,4.3,86,0.00,,,0.00,WUHU216HW,2013-09-05 07:16:00,
2013-09-05 03:21:00,55.1,51.0,29.88,ESE,113,0.7,2.5,86,0.00,,,0.00,WUHU216HW,2013-09-05 07:21:00,
2013-09-05 03:26:00,54.9,50.8,29.88,WNW,293,0.4,2.5,86,0.00,,,0.00,WUHU216HW,2013-09-05 07:26:00,
2013-09-05 03:31:00,54.7,50.6,29.88,SW,225,1.8,1.8,86,0.00,,,0.00,WUHU216HW,2013-09-05 07:31:00,
2013-09-05 03:36:00,54.7,50.6,29.88,WSW,248,0.4,1.8,86,0.00,,,0.00,WUHU216HW,2013-09-05 07:36:00,
2013-09-05 03:41:00,54.7,50.6,29.88,SSW,203,0.0,1.8,86,0.00,,,0.00,WUHU216HW,2013-09-05 07:41:00,
2013-09-05 03:46:00,54.5,50.4,29.88,East,90,1.1,2.2,86,0.00,,,0.00,WUHU216HW,2013-09-05 07:46:00,
2013-09-05 03:51:00,54.4,50.2,29.88,East,90,1.1,2.2,86,0.00,,,0.00,WUHU216HW,2013-09-05 07:51:00,
2013-09-05 03:56:00,54.4,50.2,29.89,ENE,68,1.1,2.2,86,0.00,,,0.00,WUHU216HW,2013-09-05 07:56:00,
2013-09-05 04:01:00,54.2,50.0,29.89,NNE,23,1.3,2.2,86,0.00,,,0.00,WUHU216HW,2013-09-05 08:01:00,
2013-09-05 04:06:00,54.0,49.9,29.89,ENE,68,1.8,2.9,86,0.00,,,0.00,WUHU216HW,2013-09-05 08:06:00,
2013-09-05 04:11:00,53.8,49.7,29.89,NNE,23,0.9,2.9,86,0.00,,,0.00,WUHU216HW,2013-09-05 08:11:00,
2013-09-05 04:16:00,53.6,49.5,29.89,NNW,338,1.1,2.7,86,0.00,,,0.00,WUHU216HW,2013-09-05 08:16:00,